CCA4125 ZBAA-ZULS

Flight info

Callsign CCA4125
Flight time 4h 14m
Altitude 34100
Route BOTPU2G BOTPU W47 IDSOT W48 MAKIP DCT MULOB W220 NIRUV/K0828S1100 B215 VENIV W198 PANRA DCT XNN DCT IGELA DCT TAPUN W500 LXA
Aircraft A319/M-SDE3FGHIRWY/LB1

Departure

Time 2026-04-23 09:12
Airport Beijing Capital International Airport (ZBAA)

Arrival

Time 2026-04-23 13:27
Airport Lhasa Gonggar International Airport (ZULS)
Time Latitude Longitude Altitude Speed Heading
2026-04-23 09:00 40.07835 116.60273 124 ft 0 kts 203°
2026-04-23 09:05 40.07844 116.60277 124 ft 2 kts 203°
2026-04-23 09:06 40.07859 116.60286 121 ft 2 kts 203°
2026-04-23 09:06 40.07874 116.60294 121 ft 2 kts 203°
2026-04-23 09:06 40.07889 116.60302 123 ft 2 kts 203°
2026-04-23 09:06 40.07903 116.60312 123 ft 2 kts 225°
2026-04-23 09:07 40.07913 116.60329 121 ft 2 kts 255°
2026-04-23 09:07 40.07915 116.60347 120 ft 0 kts 293°
2026-04-23 09:08 40.07915 116.60346 124 ft 1 kts 293°
2026-04-23 09:08 40.07944 116.60257 124 ft 20 kts 292°
2026-04-23 09:08 40.07999 116.60081 124 ft 22 kts 279°
2026-04-23 09:09 40.07992 116.59889 120 ft 14 kts 291°
2026-04-23 09:09 40.08069 116.59856 122 ft 17 kts 353°
2026-04-23 09:09 40.08241 116.59829 122 ft 29 kts 353°
2026-04-23 09:09 40.08444 116.59797 122 ft 30 kts 353°
2026-04-23 09:10 40.08641 116.59766 122 ft 28 kts 353°
2026-04-23 09:10 40.08973 116.59693 122 ft 12 kts 301°
2026-04-23 09:10 40.08964 116.59586 123 ft 13 kts 256°
2026-04-23 09:11 40.08904 116.59507 123 ft 13 kts 202°
2026-04-23 09:11 40.08809 116.59505 122 ft 15 kts 172°
2026-04-23 09:11 40.08620 116.59532 124 ft 51 kts 173°
2026-04-23 09:11 40.08068 116.59621 122 ft 108 kts 173°
2026-04-23 09:12 40.07132 116.59766 125 ft 161 kts 173°
2026-04-23 09:12 40.06016 116.59956 682 ft 159 kts 175°
2026-04-23 09:12 40.04927 116.60130 1333 ft 159 kts 178°
2026-04-23 09:12 40.03823 116.60298 1943 ft 162 kts 177°
2026-04-23 09:13 40.02636 116.60476 2161 ft 182 kts 176°
2026-04-23 09:13 40.01301 116.60674 2356 ft 204 kts 175°
2026-04-23 09:13 39.99823 116.60899 2703 ft 223 kts 175°
2026-04-23 09:13 39.98259 116.61143 3354 ft 228 kts 175°
2026-04-23 09:14 39.96675 116.61392 4042 ft 231 kts 175°
2026-04-23 09:14 39.95058 116.61646 4729 ft 235 kts 176°
2026-04-23 09:14 39.93409 116.61904 5326 ft 245 kts 176°
2026-04-23 09:14 39.91647 116.62175 5751 ft 263 kts 176°
2026-04-23 09:15 39.90432 116.62362 6189 ft 268 kts 176°
2026-04-23 09:15 39.87937 116.62750 7088 ft 276 kts 176°
2026-04-23 09:15 39.86641 116.62953 7575 ft 279 kts 176°
2026-04-23 09:15 39.84063 116.63356 8533 ft 284 kts 176°
2026-04-23 09:16 39.82731 116.63563 9017 ft 287 kts 176°
2026-04-23 09:16 39.80730 116.63871 9737 ft 291 kts 176°
2026-04-23 09:16 39.78715 116.64182 10173 ft 305 kts 176°
2026-04-23 09:16 39.76530 116.64512 10322 ft 328 kts 176°
2026-04-23 09:17 39.74211 116.64864 10687 ft 340 kts 176°
2026-04-23 09:17 39.71839 116.65133 11255 ft 343 kts 185°
2026-04-23 09:17 39.69515 116.64534 11836 ft 341 kts 205°
2026-04-23 09:17 39.67509 116.62936 12435 ft 339 kts 225°
2026-04-23 09:18 39.66059 116.60560 13029 ft 337 kts 245°
2026-04-23 09:18 39.65325 116.57695 13636 ft 336 kts 264°
2026-04-23 09:18 39.65109 116.54657 14145 ft 340 kts 267°
2026-04-23 09:18 39.64919 116.51589 14664 ft 343 kts 267°
2026-04-23 09:19 39.64727 116.48483 15176 ft 347 kts 267°
2026-04-23 09:19 39.64529 116.45342 15713 ft 350 kts 267°
2026-04-23 09:19 39.64329 116.42182 16251 ft 354 kts 267°
2026-04-23 09:19 39.64123 116.38992 16787 ft 357 kts 267°
2026-04-23 09:20 39.63914 116.35765 17320 ft 360 kts 267°
2026-04-23 09:20 39.63700 116.32516 17833 ft 363 kts 267°
2026-04-23 09:20 39.63480 116.29233 18325 ft 367 kts 267°
2026-04-23 09:20 39.63257 116.25920 18768 ft 370 kts 267°
2026-04-23 09:21 39.63032 116.22585 19268 ft 372 kts 267°
2026-04-23 09:21 39.62809 116.19236 19765 ft 374 kts 267°
2026-04-23 09:21 39.62585 116.15865 20231 ft 377 kts 267°
2026-04-23 09:21 39.62358 116.12454 20670 ft 380 kts 267°
2026-04-23 09:22 39.62127 116.09021 21096 ft 384 kts 267°
2026-04-23 09:22 39.61896 116.05597 21519 ft 387 kts 267°
2026-04-23 09:22 39.61659 116.02106 21954 ft 391 kts 267°
2026-04-23 09:22 39.61420 115.98587 22397 ft 393 kts 268°
2026-04-23 09:23 39.61177 115.95041 22780 ft 397 kts 267°
2026-04-23 09:23 39.60931 115.91456 23218 ft 399 kts 266°
2026-04-23 09:23 39.60700 115.87850 23556 ft 402 kts 270°
2026-04-23 09:23 39.60832 115.84235 23854 ft 403 kts 280°
2026-04-23 09:24 39.61484 115.80685 24192 ft 402 kts 291°
2026-04-23 09:24 39.62616 115.77378 24531 ft 402 kts 300°
2026-04-23 09:24 39.63949 115.74184 24867 ft 404 kts 300°
2026-04-23 09:24 39.65276 115.70996 25176 ft 407 kts 300°
2026-04-23 09:25 39.66781 115.67899 25522 ft 406 kts 309°
2026-04-23 09:25 39.68686 115.65212 25948 ft 404 kts 320°
2026-04-23 09:25 39.70919 115.63013 26272 ft 405 kts 329°
2026-04-23 09:25 39.73437 115.61353 26549 ft 407 kts 338°
2026-04-23 09:26 39.76060 115.59922 26849 ft 411 kts 338°
2026-04-23 09:26 39.78704 115.58474 27183 ft 412 kts 338°
2026-04-23 09:26 39.81353 115.57019 27502 ft 414 kts 338°
2026-04-23 09:26 39.84015 115.55551 27881 ft 416 kts 337°
2026-04-23 09:27 39.86683 115.54075 28205 ft 418 kts 337°
2026-04-23 09:27 39.89361 115.52589 28534 ft 419 kts 337°
2026-04-23 09:27 39.92030 115.51024 28858 ft 422 kts 332°
2026-04-23 09:27 39.94447 115.48854 29157 ft 425 kts 320°
2026-04-23 09:28 39.96461 115.46028 29442 ft 428 kts 307°
2026-04-23 09:28 39.97971 115.42661 29721 ft 433 kts 295°
2026-04-23 09:28 39.98879 115.38902 29972 ft 439 kts 282°
2026-04-23 09:28 39.99197 115.34980 30187 ft 443 kts 276°
2026-04-23 09:29 39.99404 115.30967 30429 ft 444 kts 276°
2026-04-23 09:29 39.99605 115.26962 30799 ft 442 kts 276°
2026-04-23 09:29 39.99804 115.22971 31147 ft 440 kts 276°
2026-04-23 09:29 40.00004 115.18988 31500 ft 439 kts 276°
2026-04-23 09:30 40.00204 115.15023 31846 ft 438 kts 276°
2026-04-23 09:30 40.00407 115.11064 32177 ft 437 kts 276°
2026-04-23 09:30 40.00612 115.07111 32517 ft 437 kts 276°
2026-04-23 09:30 40.00812 115.03158 32792 ft 438 kts 276°
2026-04-23 09:31 40.01005 114.99194 33078 ft 438 kts 276°
2026-04-23 09:31 40.01196 114.95236 33417 ft 437 kts 276°
2026-04-23 09:31 40.01386 114.91281 33753 ft 436 kts 276°
2026-04-23 09:31 40.01574 114.87331 33904 ft 435 kts 276°
2026-04-23 09:32 40.01761 114.83401 33939 ft 433 kts 276°
2026-04-23 09:32 40.02128 114.75578 33921 ft 431 kts 276°
2026-04-23 09:33 40.02486 114.67801 33919 ft 431 kts 276°
2026-04-23 09:33 40.02847 114.59940 33913 ft 431 kts 276°
2026-04-23 09:34 40.03204 114.52178 33910 ft 431 kts 276°
2026-04-23 09:34 40.03553 114.44370 33902 ft 431 kts 276°
2026-04-23 09:35 40.03889 114.36556 33904 ft 431 kts 276°
2026-04-23 09:35 40.04226 114.28753 33916 ft 430 kts 276°
2026-04-23 09:36 40.04561 114.20984 33921 ft 429 kts 276°
2026-04-23 09:36 40.04885 114.13223 33919 ft 428 kts 276°
2026-04-23 09:37 40.05396 114.05498 33914 ft 427 kts 278°
2026-04-23 09:37 40.06033 113.97806 33915 ft 426 kts 278°
2026-04-23 09:38 40.06638 113.90106 33918 ft 426 kts 278°
2026-04-23 09:38 40.07188 113.82394 33907 ft 427 kts 278°
2026-04-23 09:39 40.07737 113.74657 33897 ft 428 kts 278°
2026-04-23 09:39 40.08285 113.66922 33905 ft 428 kts 278°
2026-04-23 09:40 40.08826 113.59196 33918 ft 427 kts 277°
2026-04-23 09:40 40.09355 113.51472 33921 ft 427 kts 277°
2026-04-23 09:41 40.09886 113.43745 33926 ft 427 kts 277°
2026-04-23 09:41 40.10413 113.36017 33918 ft 427 kts 277°
2026-04-23 09:42 40.10940 113.28292 33919 ft 427 kts 277°
2026-04-23 09:42 40.11457 113.20612 33927 ft 427 kts 277°
2026-04-23 09:43 40.11965 113.12886 33930 ft 427 kts 277°
2026-04-23 09:43 40.12469 113.05153 33941 ft 427 kts 277°
2026-04-23 09:44 40.12970 112.97417 33954 ft 427 kts 277°
2026-04-23 09:44 40.13468 112.89734 33956 ft 427 kts 277°
2026-04-23 09:45 40.13955 112.81988 33958 ft 426 kts 277°
2026-04-23 09:45 40.14433 112.74267 33960 ft 426 kts 277°
2026-04-23 09:46 40.14912 112.66548 33968 ft 426 kts 277°
2026-04-23 09:46 40.15390 112.58831 33971 ft 426 kts 277°
2026-04-23 09:47 40.15853 112.51109 33971 ft 426 kts 276°
2026-04-23 09:47 40.15465 112.43375 33956 ft 431 kts 258°
2026-04-23 09:48 40.13530 112.35934 33961 ft 433 kts 252°
2026-04-23 09:48 40.11467 112.28541 33958 ft 433 kts 252°
2026-04-23 09:49 40.09423 112.21182 33959 ft 434 kts 252°
2026-04-23 09:49 40.07358 112.13772 33959 ft 434 kts 252°
2026-04-23 09:50 40.05280 112.06370 33949 ft 434 kts 252°
2026-04-23 09:50 40.03187 111.98966 33949 ft 434 kts 252°
2026-04-23 09:51 40.01098 111.91571 33942 ft 434 kts 252°
2026-04-23 09:51 39.98460 111.84472 33949 ft 439 kts 237°
2026-04-23 09:52 39.94222 111.78724 33928 ft 443 kts 221°
2026-04-23 09:52 39.89477 111.73600 33934 ft 443 kts 221°
2026-04-23 09:53 39.84767 111.68507 33943 ft 443 kts 221°
2026-04-23 09:53 39.80030 111.63378 33943 ft 443 kts 221°
2026-04-23 09:54 39.75287 111.58251 33947 ft 443 kts 221°
2026-04-23 09:54 39.70539 111.53137 33929 ft 443 kts 221°
2026-04-23 09:55 39.65784 111.48035 33925 ft 444 kts 221°
2026-04-23 09:55 39.61011 111.42926 33930 ft 445 kts 221°
2026-04-23 09:56 39.56230 111.37814 33921 ft 445 kts 221°
2026-04-23 09:56 39.51454 111.32703 33918 ft 446 kts 221°
2026-04-23 09:57 39.46692 111.27614 33921 ft 446 kts 221°
2026-04-23 09:57 39.41897 111.22506 33915 ft 447 kts 221°
2026-04-23 09:58 39.37094 111.17411 33911 ft 447 kts 221°
2026-04-23 09:58 39.32290 111.12314 33900 ft 447 kts 221°
2026-04-23 09:59 39.27488 111.07224 33913 ft 447 kts 221°
2026-04-23 09:59 39.22677 111.02139 33920 ft 446 kts 221°
2026-04-23 10:00 39.18622 110.96208 33906 ft 440 kts 242°
2026-04-23 10:00 39.16510 110.88909 33906 ft 434 kts 263°
2026-04-23 10:01 39.16421 110.81198 33897 ft 430 kts 276°
2026-04-23 10:01 39.16789 110.73497 33891 ft 431 kts 275°
2026-04-23 10:02 39.17147 110.65787 33894 ft 431 kts 275°
2026-04-23 10:02 39.17504 110.58073 33888 ft 431 kts 275°
2026-04-23 10:03 39.17861 110.50411 33893 ft 431 kts 275°
2026-04-23 10:03 39.18202 110.42694 33885 ft 431 kts 275°
2026-04-23 10:04 39.18540 110.34987 33886 ft 431 kts 275°
2026-04-23 10:04 39.18823 110.28580 33882 ft 430 kts 275°
2026-04-23 10:05 39.19160 110.20871 33887 ft 430 kts 275°
2026-04-23 10:05 39.19557 110.11911 33881 ft 430 kts 275°
2026-04-23 10:06 39.19933 110.04218 33883 ft 430 kts 275°
2026-04-23 10:06 39.20308 109.96542 33886 ft 429 kts 275°
2026-04-23 10:07 39.20610 109.90113 33880 ft 429 kts 275°
2026-04-23 10:07 39.20966 109.82443 33878 ft 428 kts 275°
2026-04-23 10:08 39.21324 109.74782 33876 ft 428 kts 275°
2026-04-23 10:08 39.21669 109.67176 33873 ft 427 kts 275°
2026-04-23 10:09 39.22176 109.55710 33871 ft 427 kts 274°
2026-04-23 10:09 39.22501 109.48064 33872 ft 427 kts 274°
2026-04-23 10:10 39.22807 109.40414 33868 ft 427 kts 274°
2026-04-23 10:10 39.23090 109.32775 33873 ft 426 kts 274°
2026-04-23 10:11 39.23362 109.25151 33873 ft 425 kts 274°
2026-04-23 10:11 39.23644 109.17533 33869 ft 425 kts 274°
2026-04-23 10:12 39.23926 109.09921 33863 ft 425 kts 273°
2026-04-23 10:12 39.24194 109.02317 33867 ft 424 kts 273°
2026-04-23 10:13 39.24457 108.94724 33864 ft 423 kts 273°
2026-04-23 10:13 39.24715 108.87123 33862 ft 423 kts 273°
2026-04-23 10:14 39.24965 108.79593 33858 ft 423 kts 273°
2026-04-23 10:14 39.25221 108.72019 33866 ft 422 kts 273°
2026-04-23 10:15 39.25471 108.64459 33857 ft 421 kts 273°
2026-04-23 10:15 39.25712 108.56900 33858 ft 421 kts 273°
2026-04-23 10:16 39.25946 108.49349 33856 ft 421 kts 273°
2026-04-23 10:16 39.26175 108.41812 33855 ft 420 kts 272°
2026-04-23 10:17 39.26394 108.34274 33851 ft 420 kts 272°
2026-04-23 10:17 39.26614 108.26779 33850 ft 420 kts 272°
2026-04-23 10:18 39.26838 108.19237 33852 ft 420 kts 272°
2026-04-23 10:18 39.27050 108.11697 33857 ft 420 kts 272°
2026-04-23 10:19 39.27258 108.04154 33842 ft 420 kts 272°
2026-04-23 10:19 39.27467 107.96615 33845 ft 421 kts 272°
2026-04-23 10:20 39.27658 107.89065 33840 ft 421 kts 272°
2026-04-23 10:20 39.27851 107.81514 33842 ft 421 kts 272°
2026-04-23 10:21 39.28034 107.73958 33836 ft 421 kts 272°
2026-04-23 10:21 39.27835 107.66464 33845 ft 421 kts 259°
2026-04-23 10:22 39.25776 107.59413 33846 ft 423 kts 240°
2026-04-23 10:22 39.22427 107.53173 33842 ft 423 kts 236°
2026-04-23 10:23 39.19035 107.46966 33843 ft 424 kts 236°
2026-04-23 10:23 39.15648 107.40749 33839 ft 424 kts 236°
2026-04-23 10:24 39.12261 107.34518 33838 ft 424 kts 236°
2026-04-23 10:24 39.08879 107.28310 33841 ft 423 kts 236°
2026-04-23 10:25 39.05481 107.22122 33841 ft 423 kts 236°
2026-04-23 10:25 39.02075 107.15953 33841 ft 423 kts 236°
2026-04-23 10:26 38.98674 107.09794 33836 ft 422 kts 236°
2026-04-23 10:26 38.95269 107.03634 33823 ft 422 kts 236°
2026-04-23 10:27 38.91870 106.97489 33835 ft 421 kts 236°
2026-04-23 10:27 38.88474 106.91357 33837 ft 421 kts 236°
2026-04-23 10:28 38.85100 106.85279 33833 ft 420 kts 236°
2026-04-23 10:28 38.81704 106.79180 33831 ft 420 kts 236°
2026-04-23 10:29 38.78305 106.73093 33811 ft 420 kts 236°
2026-04-23 10:29 38.74906 106.67003 33813 ft 420 kts 236°
2026-04-23 10:30 38.71508 106.60928 33821 ft 419 kts 236°
2026-04-23 10:30 38.68109 106.54869 33823 ft 419 kts 236°
2026-04-23 10:31 38.64708 106.48819 33822 ft 418 kts 236°
2026-04-23 10:31 38.61309 106.42780 33813 ft 418 kts 236°
2026-04-23 10:32 38.57907 106.36753 33812 ft 418 kts 236°
2026-04-23 10:32 38.54524 106.30764 33818 ft 418 kts 236°
2026-04-23 10:33 38.51110 106.24736 33818 ft 417 kts 236°
2026-04-23 10:33 38.47706 106.18742 33834 ft 417 kts 236°
2026-04-23 10:34 38.44305 106.12754 33817 ft 417 kts 236°
2026-04-23 10:34 38.40886 106.06836 33819 ft 417 kts 235°
2026-04-23 10:35 38.37355 106.00952 33830 ft 417 kts 234°
2026-04-23 10:35 38.33815 105.95092 33832 ft 417 kts 234°
2026-04-23 10:36 38.30283 105.89216 33836 ft 417 kts 234°
2026-04-23 10:36 38.26767 105.83343 33831 ft 417 kts 234°
2026-04-23 10:37 38.23251 105.77478 33846 ft 417 kts 235°
2026-04-23 10:37 38.19725 105.71616 33853 ft 417 kts 234°
2026-04-23 10:38 38.16197 105.65762 33852 ft 417 kts 234°
2026-04-23 10:38 38.12692 105.59957 33876 ft 416 kts 234°
2026-04-23 10:39 38.09144 105.54090 33884 ft 416 kts 234°
2026-04-23 10:39 38.05640 105.48308 33888 ft 415 kts 235°
2026-04-23 10:40 38.02109 105.42505 33891 ft 415 kts 235°
2026-04-23 10:40 37.98581 105.36713 33894 ft 415 kts 235°
2026-04-23 10:41 37.95060 105.30926 33897 ft 414 kts 235°
2026-04-23 10:41 37.91536 105.25140 33888 ft 414 kts 235°
2026-04-23 10:42 37.88009 105.19370 33894 ft 414 kts 235°
2026-04-23 10:42 37.84476 105.13606 33905 ft 415 kts 235°
2026-04-23 10:43 37.80938 105.07843 33908 ft 415 kts 235°
2026-04-23 10:43 37.77429 105.02118 33902 ft 415 kts 235°
2026-04-23 10:44 37.73884 104.96350 33919 ft 415 kts 235°
2026-04-23 10:44 37.70334 104.90603 33929 ft 415 kts 236°
2026-04-23 10:45 37.66780 104.84853 33941 ft 414 kts 237°
2026-04-23 10:45 37.63234 104.79121 33951 ft 414 kts 236°
2026-04-23 10:46 37.59688 104.73403 33958 ft 414 kts 236°
2026-04-23 10:46 37.56167 104.67731 33957 ft 413 kts 236°
2026-04-23 10:47 37.52619 104.62027 33967 ft 413 kts 236°
2026-04-23 10:47 37.49073 104.56330 33957 ft 413 kts 237°
2026-04-23 10:48 37.45524 104.50649 33967 ft 413 kts 236°
2026-04-23 10:48 37.42009 104.44935 33979 ft 412 kts 237°
2026-04-23 10:49 37.38561 104.39180 33986 ft 412 kts 238°
2026-04-23 10:49 37.35115 104.33423 34000 ft 412 kts 238°
2026-04-23 10:50 37.31649 104.27687 33988 ft 412 kts 237°
2026-04-23 10:50 37.28172 104.21966 33994 ft 412 kts 237°
2026-04-23 10:51 37.24686 104.16252 34009 ft 412 kts 238°
2026-04-23 10:51 37.21222 104.10575 34018 ft 412 kts 238°
2026-04-23 10:52 37.18490 104.04388 34045 ft 402 kts 252°
2026-04-23 10:52 37.16418 103.97871 34054 ft 403 kts 252°
2026-04-23 10:53 37.14312 103.91361 34085 ft 403 kts 252°
2026-04-23 10:53 37.12194 103.84859 34067 ft 403 kts 252°
2026-04-23 10:54 37.10432 103.79450 34068 ft 404 kts 252°
2026-04-23 10:54 37.08307 103.72920 34105 ft 404 kts 252°
2026-04-23 10:55 37.06179 103.66403 34111 ft 404 kts 252°
2026-04-23 10:55 37.04064 103.59925 34132 ft 404 kts 252°
2026-04-23 10:56 37.01933 103.53404 34145 ft 404 kts 252°
2026-04-23 10:56 36.99801 103.46890 34160 ft 404 kts 252°
2026-04-23 10:57 36.97656 103.40381 34163 ft 404 kts 252°
2026-04-23 10:57 36.95509 103.33880 34147 ft 404 kts 252°
2026-04-23 10:58 36.93362 103.27380 34155 ft 405 kts 253°
2026-04-23 10:58 36.91245 103.20853 34159 ft 405 kts 253°
2026-04-23 10:59 36.89140 103.14327 34174 ft 405 kts 253°
2026-04-23 10:59 36.87022 103.07788 34158 ft 406 kts 253°
2026-04-23 11:00 36.84904 103.01288 34173 ft 408 kts 253°
2026-04-23 11:00 36.82755 102.94711 34179 ft 409 kts 253°
2026-04-23 11:01 36.80609 102.88128 34175 ft 409 kts 253°
2026-04-23 11:01 36.78489 102.81545 34178 ft 409 kts 253°
2026-04-23 11:02 36.76368 102.74957 34171 ft 409 kts 252°
2026-04-23 11:02 36.74237 102.68380 34154 ft 409 kts 252°
2026-04-23 11:03 36.72090 102.61805 34171 ft 410 kts 252°
2026-04-23 11:03 36.69951 102.55225 34174 ft 410 kts 252°
2026-04-23 11:04 36.67804 102.48645 34172 ft 410 kts 252°
2026-04-23 11:04 36.65671 102.42122 34154 ft 410 kts 252°
2026-04-23 11:05 36.63515 102.35551 34150 ft 410 kts 253°
2026-04-23 11:05 36.61351 102.28981 34139 ft 410 kts 252°
2026-04-23 11:06 36.58103 102.19110 34121 ft 411 kts 252°
2026-04-23 11:07 36.55922 102.12516 34105 ft 412 kts 252°
2026-04-23 11:07 36.53751 102.05964 34109 ft 412 kts 252°
2026-04-23 11:08 36.50700 101.99835 34080 ft 424 kts 237°
2026-04-23 11:08 36.46994 101.94132 34093 ft 424 kts 237°
2026-04-23 11:09 36.43296 101.88430 34076 ft 424 kts 237°
2026-04-23 11:09 36.39607 101.82727 34062 ft 424 kts 237°
2026-04-23 11:10 36.35913 101.77013 34064 ft 425 kts 237°
2026-04-23 11:10 36.32202 101.71305 34055 ft 425 kts 237°
2026-04-23 11:11 36.28478 101.65596 34050 ft 426 kts 237°
2026-04-23 11:11 36.24746 101.59881 34018 ft 427 kts 237°
2026-04-23 11:12 36.21004 101.54149 34029 ft 427 kts 237°
2026-04-23 11:12 36.17284 101.48460 33996 ft 428 kts 237°
2026-04-23 11:13 36.13527 101.42729 33978 ft 429 kts 237°
2026-04-23 11:13 36.09758 101.36994 33953 ft 430 kts 237°
2026-04-23 11:14 36.05982 101.31257 33965 ft 430 kts 237°
2026-04-23 11:14 36.02200 101.25512 33917 ft 432 kts 237°
2026-04-23 11:15 35.98395 101.19748 33919 ft 434 kts 237°
2026-04-23 11:15 35.94574 101.13975 33926 ft 435 kts 237°
2026-04-23 11:16 35.90741 101.08184 33939 ft 436 kts 237°
2026-04-23 11:16 35.86901 101.02385 33943 ft 436 kts 237°
2026-04-23 11:17 35.83076 100.96629 33924 ft 436 kts 237°
2026-04-23 11:17 35.79228 100.90846 33929 ft 436 kts 237°
2026-04-23 11:18 35.75371 100.85066 33922 ft 436 kts 237°
2026-04-23 11:18 35.71523 100.79304 33949 ft 435 kts 237°
2026-04-23 11:19 35.67683 100.73564 33954 ft 434 kts 237°
2026-04-23 11:19 35.63850 100.67838 33956 ft 433 kts 237°
2026-04-23 11:20 35.60011 100.62121 33955 ft 433 kts 237°
2026-04-23 11:20 35.56176 100.56409 33939 ft 433 kts 237°
2026-04-23 11:21 35.52368 100.50755 33944 ft 432 kts 237°
2026-04-23 11:21 35.48521 100.45062 33978 ft 429 kts 237°
2026-04-23 11:22 35.44745 100.39475 33978 ft 427 kts 237°
2026-04-23 11:22 35.40958 100.33870 33980 ft 426 kts 237°
2026-04-23 11:23 35.37170 100.28283 33972 ft 426 kts 237°
2026-04-23 11:23 35.33388 100.22708 33966 ft 425 kts 237°
2026-04-23 11:24 35.29606 100.17146 33941 ft 425 kts 237°
2026-04-23 11:24 35.25815 100.11582 33959 ft 426 kts 237°
2026-04-23 11:25 35.22007 100.06009 33969 ft 426 kts 237°
2026-04-23 11:25 35.18225 100.00477 33972 ft 426 kts 237°
2026-04-23 11:26 35.14420 99.94915 34003 ft 427 kts 237°
2026-04-23 11:26 35.10615 99.89351 34013 ft 427 kts 237°
2026-04-23 11:27 35.06789 99.83786 34009 ft 427 kts 238°
2026-04-23 11:27 35.02947 99.78206 34051 ft 431 kts 238°
2026-04-23 11:28 34.99085 99.72600 34053 ft 432 kts 238°
2026-04-23 11:28 34.95249 99.67039 34090 ft 431 kts 238°
2026-04-23 11:29 34.91387 99.61448 34085 ft 431 kts 238°
2026-04-23 11:29 34.87523 99.55859 34087 ft 432 kts 238°
2026-04-23 11:30 34.83652 99.50269 34099 ft 432 kts 238°
2026-04-23 11:30 34.79773 99.44685 34095 ft 432 kts 239°
2026-04-23 11:31 34.75883 99.39092 34120 ft 433 kts 239°
2026-04-23 11:31 34.71988 99.33500 34119 ft 433 kts 239°
2026-04-23 11:32 34.68087 99.27909 34133 ft 434 kts 239°
2026-04-23 11:32 34.64175 99.22314 34090 ft 435 kts 239°
2026-04-23 11:33 34.60253 99.16713 34113 ft 435 kts 239°
2026-04-23 11:33 34.56363 99.11166 34118 ft 434 kts 239°
2026-04-23 11:34 34.52446 99.05585 34093 ft 434 kts 239°
2026-04-23 11:34 34.48528 99.00002 34093 ft 435 kts 239°
2026-04-23 11:35 34.44597 98.94424 34098 ft 436 kts 239°
2026-04-23 11:35 34.40652 98.88848 34067 ft 436 kts 239°
2026-04-23 11:36 34.36701 98.83261 34087 ft 435 kts 239°
2026-04-23 11:36 34.32784 98.77724 34095 ft 435 kts 239°
2026-04-23 11:37 34.28850 98.72169 34105 ft 434 kts 239°
2026-04-23 11:37 34.24918 98.66623 34090 ft 434 kts 240°
2026-04-23 11:38 34.20972 98.61068 34117 ft 435 kts 239°
2026-04-23 11:38 34.17035 98.55557 34090 ft 436 kts 239°
2026-04-23 11:39 34.13068 98.49996 34122 ft 437 kts 239°
2026-04-23 11:39 34.09095 98.44431 34147 ft 437 kts 239°
2026-04-23 11:40 34.05124 98.38875 34148 ft 437 kts 239°
2026-04-23 11:40 34.01144 98.33327 34143 ft 437 kts 240°
2026-04-23 11:41 33.97165 98.27786 34152 ft 437 kts 240°
2026-04-23 11:41 33.93180 98.22248 34136 ft 437 kts 239°
2026-04-23 11:42 33.89203 98.16720 34153 ft 437 kts 239°
2026-04-23 11:42 33.85248 98.11227 34160 ft 437 kts 239°
2026-04-23 11:43 33.81903 98.06602 34160 ft 437 kts 239°
2026-04-23 11:43 33.77251 98.00181 34170 ft 438 kts 239°
2026-04-23 11:44 33.73251 97.94658 34147 ft 438 kts 239°
2026-04-23 11:44 33.69923 97.90068 34152 ft 438 kts 239°
2026-04-23 11:45 33.65244 97.83618 34147 ft 438 kts 239°
2026-04-23 11:45 33.61911 97.79043 34147 ft 438 kts 239°
2026-04-23 11:46 33.57245 97.72644 34150 ft 438 kts 239°
2026-04-23 11:46 33.53882 97.68044 34151 ft 438 kts 239°
2026-04-23 11:47 33.49874 97.62559 34150 ft 437 kts 239°
2026-04-23 11:47 33.45881 97.57108 34079 ft 437 kts 239°
2026-04-23 11:48 33.41859 97.51619 34145 ft 439 kts 238°
2026-04-23 11:48 33.37816 97.46121 34150 ft 439 kts 238°
2026-04-23 11:49 33.33785 97.40640 34136 ft 438 kts 238°
2026-04-23 11:49 33.29760 97.35172 34132 ft 438 kts 238°
2026-04-23 11:50 33.25722 97.29695 34124 ft 438 kts 238°
2026-04-23 11:50 33.21714 97.24268 34111 ft 438 kts 238°
2026-04-23 11:51 33.17684 97.18824 34094 ft 438 kts 238°
2026-04-23 11:51 33.13638 97.13373 34077 ft 438 kts 238°
2026-04-23 11:52 33.09598 97.07925 34085 ft 438 kts 238°
2026-04-23 11:52 33.05561 97.02485 34081 ft 437 kts 238°
2026-04-23 11:53 33.01553 96.97096 34077 ft 437 kts 238°
2026-04-23 11:53 32.97513 96.91690 34078 ft 437 kts 238°
2026-04-23 11:54 32.93477 96.86286 34061 ft 437 kts 238°
2026-04-23 11:54 32.89446 96.80885 34041 ft 437 kts 237°
2026-04-23 11:55 32.85406 96.75479 34060 ft 437 kts 237°
2026-04-23 11:55 32.81351 96.70090 34060 ft 437 kts 237°
2026-04-23 11:56 32.77296 96.64699 34059 ft 437 kts 237°
2026-04-23 11:56 32.73249 96.59316 34055 ft 436 kts 237°
2026-04-23 11:57 32.69204 96.53938 34027 ft 437 kts 237°
2026-04-23 11:57 32.65150 96.48560 34028 ft 436 kts 237°
2026-04-23 11:58 32.61100 96.43201 34009 ft 436 kts 237°
2026-04-23 11:58 32.57042 96.37841 34005 ft 437 kts 237°
2026-04-23 11:59 32.52982 96.32481 34010 ft 437 kts 237°
2026-04-23 11:59 32.48914 96.27126 34017 ft 437 kts 237°
2026-04-23 12:00 32.44870 96.21803 34003 ft 437 kts 237°
2026-04-23 12:00 32.40799 96.16455 34013 ft 437 kts 237°
2026-04-23 12:01 32.36727 96.11106 34016 ft 437 kts 237°
2026-04-23 12:01 32.32652 96.05766 34008 ft 437 kts 237°
2026-04-23 12:02 32.28576 96.00436 34018 ft 437 kts 237°
2026-04-23 12:02 32.24491 95.95094 34026 ft 438 kts 237°
2026-04-23 12:03 32.20398 95.89765 34021 ft 437 kts 237°
2026-04-23 12:03 32.16303 95.84435 34027 ft 439 kts 236°
2026-04-23 12:04 32.12190 95.79081 34044 ft 441 kts 236°
2026-04-23 12:04 32.08066 95.73727 34073 ft 441 kts 236°
2026-04-23 12:05 32.03943 95.68383 34073 ft 441 kts 236°
2026-04-23 12:05 31.99804 95.63030 34102 ft 442 kts 236°
2026-04-23 12:06 31.95689 95.57706 34115 ft 442 kts 236°
2026-04-23 12:06 31.89487 95.49683 34109 ft 441 kts 235°
2026-04-23 12:07 31.85340 95.44343 34135 ft 442 kts 235°
2026-04-23 12:07 31.81193 95.39017 34134 ft 442 kts 235°
2026-04-23 12:08 31.77043 95.33686 34136 ft 442 kts 235°
2026-04-23 12:08 31.72890 95.28358 34119 ft 442 kts 234°
2026-04-23 12:09 31.68732 95.23036 34111 ft 442 kts 233°
2026-04-23 12:09 31.64568 95.17712 34126 ft 443 kts 233°
2026-04-23 12:10 31.60420 95.12412 34123 ft 443 kts 233°
2026-04-23 12:10 31.56247 95.07089 34127 ft 443 kts 233°
2026-04-23 12:11 31.52073 95.01777 34107 ft 443 kts 233°
2026-04-23 12:11 31.47893 94.96463 34106 ft 443 kts 233°
2026-04-23 12:12 31.43714 94.91149 34100 ft 443 kts 233°
2026-04-23 12:12 31.39527 94.85840 34072 ft 444 kts 233°
2026-04-23 12:13 31.35357 94.80548 34073 ft 445 kts 233°
2026-04-23 12:13 31.31154 94.75229 34068 ft 445 kts 233°
2026-04-23 12:14 31.26929 94.69907 34078 ft 446 kts 233°
2026-04-23 12:14 31.22711 94.64582 34081 ft 447 kts 233°
2026-04-23 12:15 31.18495 94.59251 34088 ft 446 kts 233°
2026-04-23 12:15 31.14275 94.53941 34088 ft 446 kts 233°
2026-04-23 12:16 31.10048 94.48647 34121 ft 446 kts 233°
2026-04-23 12:16 31.05830 94.43362 34120 ft 444 kts 233°
2026-04-23 12:17 31.01621 94.38088 34132 ft 444 kts 233°
2026-04-23 12:17 30.97412 94.32813 34129 ft 444 kts 233°
2026-04-23 12:18 30.93200 94.27560 34131 ft 444 kts 233°
2026-04-23 12:18 30.88982 94.22307 34129 ft 443 kts 233°
2026-04-23 12:19 30.84798 94.17085 34109 ft 444 kts 232°
2026-04-23 12:19 30.80575 94.11835 34118 ft 444 kts 232°
2026-04-23 12:20 30.76348 94.06586 34126 ft 444 kts 232°
2026-04-23 12:20 30.72121 94.01354 34124 ft 444 kts 232°
2026-04-23 12:21 30.67893 93.96120 34130 ft 445 kts 232°
2026-04-23 12:21 30.63658 93.90883 34120 ft 444 kts 232°
2026-04-23 12:22 30.59427 93.85652 34109 ft 445 kts 232°
2026-04-23 12:22 30.55190 93.80422 34105 ft 445 kts 231°
2026-04-23 12:23 30.50946 93.75188 34109 ft 444 kts 231°
2026-04-23 12:23 30.46706 93.69977 34109 ft 444 kts 231°
2026-04-23 12:24 30.42459 93.64766 34109 ft 444 kts 231°
2026-04-23 12:24 30.38218 93.59552 34106 ft 443 kts 232°
2026-04-23 12:25 30.34203 93.54201 34070 ft 442 kts 234°
2026-04-23 12:25 30.30327 93.48698 34083 ft 440 kts 235°
2026-04-23 12:26 30.26437 93.43230 34088 ft 440 kts 234°
2026-04-23 12:26 30.22491 93.37803 34073 ft 441 kts 234°
2026-04-23 12:27 30.18531 93.32390 34066 ft 440 kts 234°
2026-04-23 12:27 30.14581 93.26988 34065 ft 440 kts 234°
2026-04-23 12:28 30.10642 93.21578 34030 ft 440 kts 234°
2026-04-23 12:28 30.06697 93.16171 34045 ft 440 kts 234°
2026-04-23 12:29 30.02740 93.10777 34044 ft 440 kts 234°
2026-04-23 12:29 29.99057 93.05234 34032 ft 435 kts 242°
2026-04-23 12:30 29.95780 92.99364 34028 ft 436 kts 242°
2026-04-23 12:30 29.92482 92.93485 34023 ft 437 kts 241°
2026-04-23 12:31 29.89175 92.87602 34042 ft 438 kts 241°
2026-04-23 12:31 29.85858 92.81708 34044 ft 438 kts 241°
2026-04-23 12:32 29.83103 92.76815 34046 ft 438 kts 241°
2026-04-23 12:32 29.79779 92.70924 34052 ft 438 kts 241°
2026-04-23 12:33 29.75887 92.64039 34038 ft 439 kts 241°
2026-04-23 12:33 29.73114 92.59126 34035 ft 441 kts 241°
2026-04-23 12:34 29.69767 92.53210 34038 ft 442 kts 241°
2026-04-23 12:34 29.66403 92.47294 34040 ft 442 kts 241°
2026-04-23 12:35 29.63035 92.41381 34040 ft 442 kts 241°
2026-04-23 12:35 29.59668 92.35459 34041 ft 442 kts 241°
2026-04-23 12:36 29.56296 92.29538 34030 ft 442 kts 241°
2026-04-23 12:36 29.52952 92.23687 34026 ft 428 kts 240°
2026-04-23 12:37 29.51341 92.20877 34029 ft 415 kts 241°
2026-04-23 12:37 29.49864 92.18105 34018 ft 397 kts 250°
2026-04-23 12:37 29.49071 92.15184 34032 ft 383 kts 266°
2026-04-23 12:37 29.49018 92.12135 34013 ft 374 kts 282°
2026-04-23 12:38 29.49656 92.09280 34017 ft 367 kts 296°
2026-04-23 12:38 29.50872 92.06775 34018 ft 363 kts 310°
2026-04-23 12:38 29.52602 92.04693 34012 ft 360 kts 323°
2026-04-23 12:38 29.54734 92.03184 34016 ft 362 kts 337°
2026-04-23 12:39 29.57143 92.02351 34018 ft 364 kts 351°
2026-04-23 12:39 29.59676 92.02264 34028 ft 367 kts
2026-04-23 12:39 29.62168 92.02940 34027 ft 371 kts 19°
2026-04-23 12:39 29.64440 92.04359 34020 ft 376 kts 34°
2026-04-23 12:40 29.66328 92.06456 34018 ft 381 kts 48°
2026-04-23 12:40 29.67917 92.08905 34010 ft 383 kts 52°
2026-04-23 12:40 29.70791 92.14097 34032 ft 386 kts 55°
2026-04-23 12:41 29.73517 92.19426 34022 ft 388 kts 62°
2026-04-23 12:41 29.74363 92.22399 34026 ft 395 kts 77°
2026-04-23 12:41 29.74484 92.25574 34026 ft 402 kts 94°
2026-04-23 12:42 29.73828 92.28704 34026 ft 407 kts 111°
2026-04-23 12:42 29.72395 92.31519 34044 ft 412 kts 128°
2026-04-23 12:42 29.70282 92.33752 34035 ft 415 kts 146°
2026-04-23 12:42 29.67687 92.35185 34024 ft 416 kts 165°
2026-04-23 12:43 29.64842 92.35677 34048 ft 415 kts 184°
2026-04-23 12:43 29.61997 92.35191 34058 ft 413 kts 201°
2026-04-23 12:43 29.59430 92.33790 34057 ft 407 kts 219°
2026-04-23 12:43 29.57355 92.31631 34045 ft 399 kts 236°
2026-04-23 12:44 29.54172 92.26464 34032 ft 394 kts 242°
2026-04-23 12:44 29.51329 92.21110 34034 ft 392 kts 243°
2026-04-23 12:45 29.49232 92.15516 34021 ft 378 kts 267°
2026-04-23 12:45 29.49222 92.12536 34009 ft 370 kts 283°
2026-04-23 12:45 29.49929 92.09738 34006 ft 363 kts 299°
2026-04-23 12:46 29.51278 92.07322 34000 ft 358 kts 314°
2026-04-23 12:46 29.53146 92.05456 33989 ft 355 kts 329°
2026-04-23 12:46 29.55395 92.04268 34017 ft 360 kts 344°
2026-04-23 12:46 29.57875 92.03842 34022 ft 364 kts 359°
2026-04-23 12:47 29.60356 92.04244 34031 ft 369 kts 15°
2026-04-23 12:47 29.62696 92.05482 34026 ft 375 kts 31°
2026-04-23 12:47 29.64659 92.07479 34031 ft 382 kts 47°
2026-04-23 12:47 29.66264 92.09931 34031 ft 385 kts 51°
2026-04-23 12:48 29.69168 92.15139 34056 ft 388 kts 55°
2026-04-23 12:48 29.71848 92.20517 34038 ft 390 kts 65°
2026-04-23 12:49 29.72492 92.23573 34039 ft 397 kts 83°
2026-04-23 12:49 29.72309 92.26760 34045 ft 404 kts 101°
2026-04-23 12:49 29.71261 92.29760 34059 ft 408 kts 120°
2026-04-23 12:49 29.69419 92.32253 34050 ft 413 kts 140°
2026-04-23 12:50 29.66944 92.33955 34059 ft 418 kts 161°
2026-04-23 12:50 29.64111 92.34632 34061 ft 417 kts 181°
2026-04-23 12:50 29.61294 92.34230 34060 ft 412 kts 201°
2026-04-23 12:50 29.58743 92.32827 34059 ft 405 kts 220°
2026-04-23 12:51 29.56737 92.30618 34050 ft 396 kts 237°
2026-04-23 12:51 29.55125 92.28062 34022 ft 395 kts 240°
2026-04-23 12:51 29.52199 92.22770 34036 ft 391 kts 243°
2026-04-23 12:52 29.49608 92.17324 34028 ft 383 kts 258°
2026-04-23 12:52 29.49152 92.14362 34025 ft 373 kts 274°
2026-04-23 12:52 29.49434 92.11438 34008 ft 366 kts 289°
2026-04-23 12:53 29.50404 92.08775 34002 ft 360 kts 305°
2026-04-23 12:53 29.51977 92.06568 33998 ft 355 kts 320°
2026-04-23 12:53 29.54010 92.04976 34004 ft 356 kts 335°
2026-04-23 12:53 29.56373 92.04089 34024 ft 361 kts 350°
2026-04-23 12:54 29.58888 92.04006 34037 ft 365 kts
2026-04-23 12:54 29.61316 92.04751 34037 ft 370 kts 22°
2026-04-23 12:54 29.63516 92.06319 34035 ft 377 kts 38°
2026-04-23 12:54 29.65281 92.08581 34041 ft 383 kts 50°
2026-04-23 12:55 29.68270 92.13694 34037 ft 387 kts 54°
2026-04-23 12:55 29.71052 92.18999 34059 ft 387 kts 56°
2026-04-23 12:56 29.72110 92.21860 34048 ft 393 kts 73°
2026-04-23 12:56 29.72393 92.25000 34042 ft 399 kts 91°
2026-04-23 12:56 29.71828 92.28141 34038 ft 405 kts 110°
2026-04-23 12:56 29.70414 92.30944 34056 ft 409 kts 129°
2026-04-23 12:57 29.68257 92.33101 34065 ft 415 kts 149°
2026-04-23 12:57 29.65581 92.34347 34065 ft 417 kts 170°
2026-04-23 12:57 29.62700 92.34518 34066 ft 414 kts 191°
2026-04-23 12:57 29.59993 92.33640 34072 ft 408 kts 210°
2026-04-23 12:58 29.57679 92.31830 34067 ft 399 kts 230°
2026-04-23 12:58 29.55935 92.29394 34049 ft 395 kts 239°
2026-04-23 12:58 29.52937 92.24155 34042 ft 391 kts 243°
2026-04-23 12:59 29.50151 92.18811 34041 ft 388 kts 248°
2026-04-23 12:59 29.49301 92.15933 34036 ft 377 kts 265°
2026-04-23 12:59 29.49204 92.12964 34018 ft 369 kts 281°
2026-04-23 13:00 29.49825 92.10147 34014 ft 362 kts 297°
2026-04-23 13:00 29.51091 92.07687 34012 ft 357 kts 312°
2026-04-23 13:00 29.52892 92.05761 33999 ft 354 kts 327°
2026-04-23 13:00 29.55098 92.04504 34023 ft 357 kts 342°
2026-04-23 13:01 29.57555 92.03997 34027 ft 362 kts 358°
2026-04-23 13:01 29.60070 92.04311 34040 ft 367 kts 13°
2026-04-23 13:01 29.62428 92.05470 34035 ft 373 kts 30°
2026-04-23 13:01 29.64414 92.07424 34039 ft 381 kts 47°
2026-04-23 13:02 29.67496 92.12402 34042 ft 386 kts 54°
2026-04-23 13:02 29.70302 92.17689 34062 ft 386 kts 55°
2026-04-23 13:03 29.72287 92.23383 34049 ft 395 kts 82°
2026-04-23 13:03 29.72155 92.26556 34047 ft 402 kts 100°
2026-04-23 13:03 29.71168 92.29561 34068 ft 406 kts 119°
2026-04-23 13:04 29.69368 92.32068 34060 ft 411 kts 140°
2026-04-23 13:04 29.66926 92.33792 34067 ft 416 kts 160°
2026-04-23 13:04 29.64117 92.34518 34071 ft 415 kts 180°
2026-04-23 13:04 29.61278 92.34158 34071 ft 410 kts 200°
2026-04-23 13:05 29.58729 92.32785 34066 ft 402 kts 220°
2026-04-23 13:05 29.56725 92.30598 34056 ft 394 kts 237°
2026-04-23 13:05 29.53624 92.25440 34043 ft 390 kts 242°
2026-04-23 13:06 29.49618 92.17375 34039 ft 381 kts 257°
2026-04-23 13:06 29.49157 92.14428 34033 ft 372 kts 274°
2026-04-23 13:07 29.49436 92.11517 34018 ft 364 kts 289°
2026-04-23 13:07 29.50386 92.08901 34012 ft 359 kts 304°
2026-04-23 13:07 29.51782 92.06501 33934 ft 363 kts 303°
2026-04-23 13:07 29.52637 92.03738 33068 ft 379 kts 278°
2026-04-23 13:08 29.52364 92.00682 32368 ft 393 kts 252°
2026-04-23 13:08 29.50952 91.97995 32030 ft 398 kts 230°
2026-04-23 13:08 29.48793 91.95986 31648 ft 402 kts 216°
2026-04-23 13:08 29.46482 91.94183 31245 ft 400 kts 218°
2026-04-23 13:09 29.44229 91.92312 30851 ft 399 kts 220°
2026-04-23 13:09 29.42032 91.90432 30466 ft 399 kts 220°
2026-04-23 13:09 29.39816 91.88522 30091 ft 398 kts 220°
2026-04-23 13:09 29.37601 91.86618 29677 ft 397 kts 220°
2026-04-23 13:10 29.35387 91.84735 29307 ft 395 kts 219°
2026-04-23 13:10 29.33174 91.82878 28919 ft 393 kts 219°
2026-04-23 13:10 29.30971 91.81044 28560 ft 389 kts 219°
2026-04-23 13:10 29.28967 91.79004 28207 ft 380 kts 232°
2026-04-23 13:11 29.27444 91.76578 27868 ft 371 kts 245°
2026-04-23 13:11 29.26441 91.73901 27521 ft 363 kts 257°
2026-04-23 13:11 29.25956 91.71099 27168 ft 355 kts 269°
2026-04-23 13:11 29.25962 91.68307 26825 ft 348 kts 277°
2026-04-23 13:12 29.26126 91.65542 26459 ft 345 kts 277°
2026-04-23 13:12 29.26280 91.62846 26120 ft 342 kts 277°
2026-04-23 13:12 29.26432 91.60134 25772 ft 340 kts 277°
2026-04-23 13:12 29.26582 91.57442 25415 ft 338 kts 277°
2026-04-23 13:13 29.26732 91.54756 25054 ft 336 kts 276°
2026-04-23 13:13 29.26879 91.52087 24684 ft 335 kts 276°
2026-04-23 13:13 29.27022 91.49429 24324 ft 334 kts 276°
2026-04-23 13:13 29.27164 91.46784 24001 ft 333 kts 276°
2026-04-23 13:14 29.27310 91.44131 23601 ft 333 kts 276°
2026-04-23 13:14 29.27456 91.41484 23194 ft 333 kts 276°
2026-04-23 13:14 29.27600 91.38849 22808 ft 330 kts 276°
2026-04-23 13:14 29.27742 91.36231 22430 ft 328 kts 276°
2026-04-23 13:15 29.27884 91.33627 22061 ft 326 kts 276°
2026-04-23 13:15 29.28026 91.31048 21694 ft 324 kts 276°
2026-04-23 13:15 29.28164 91.28480 21329 ft 322 kts 276°
2026-04-23 13:15 29.28302 91.25923 20964 ft 321 kts 276°
2026-04-23 13:16 29.28439 91.23380 20594 ft 319 kts 275°
2026-04-23 13:16 29.28574 91.20844 20224 ft 318 kts 275°
2026-04-23 13:16 29.28704 91.18342 19865 ft 318 kts 275°
2026-04-23 13:16 29.28836 91.15814 19501 ft 317 kts 275°
2026-04-23 13:17 29.28967 91.13318 19319 ft 309 kts 275°
2026-04-23 13:17 29.29092 91.10904 19157 ft 299 kts 276°
2026-04-23 13:17 29.29215 91.08554 18917 ft 292 kts 276°
2026-04-23 13:17 29.29331 91.06286 18804 ft 279 kts 276°
2026-04-23 13:18 29.29443 91.04102 18603 ft 272 kts 276°
2026-04-23 13:18 29.29565 91.01958 18348 ft 268 kts 279°
2026-04-23 13:18 29.29943 90.99886 18069 ft 264 kts 290°
2026-04-23 13:18 29.30659 90.97962 17770 ft 262 kts 301°
2026-04-23 13:19 29.31590 90.96182 17466 ft 259 kts 302°
2026-04-23 13:19 29.32516 90.94420 17167 ft 255 kts 302°
2026-04-23 13:19 29.33409 90.92715 16903 ft 248 kts 302°
2026-04-23 13:19 29.34288 90.91033 16626 ft 239 kts 302°
2026-04-23 13:20 29.35117 90.89451 16360 ft 230 kts 302°
2026-04-23 13:20 29.35914 90.87929 16265 ft 215 kts 302°
2026-04-23 13:20 29.36669 90.86486 16184 ft 208 kts 301°
2026-04-23 13:20 29.37212 90.84952 16094 ft 208 kts 284°
2026-04-23 13:21 29.37342 90.83300 15863 ft 207 kts 268°
2026-04-23 13:21 29.37175 90.81686 15591 ft 196 kts 263°
2026-04-23 13:21 29.36956 90.80216 15345 ft 179 kts 261°
2026-04-23 13:21 29.36694 90.78852 15130 ft 172 kts 258°
2026-04-23 13:22 29.36345 90.77543 14914 ft 172 kts 245°
2026-04-23 13:22 29.35668 90.76424 14707 ft 172 kts 226°
2026-04-23 13:22 29.34708 90.75629 14493 ft 171 kts 205°
2026-04-23 13:22 29.33582 90.75252 14273 ft 169 kts 186°
2026-04-23 13:23 29.32414 90.75314 14092 ft 169 kts 167°
2026-04-23 13:23 29.31331 90.75803 13896 ft 168 kts 148°
2026-04-23 13:23 29.30447 90.76665 13689 ft 168 kts 130°
2026-04-23 13:23 29.29848 90.77830 13533 ft 171 kts 110°
2026-04-23 13:24 29.29653 90.78704 13415 ft 171 kts 97°
2026-04-23 13:24 29.29638 90.80064 13215 ft 171 kts 89°
2026-04-23 13:24 29.29660 90.81424 12911 ft 171 kts 89°
2026-04-23 13:24 29.29686 90.83236 12564 ft 169 kts 89°
2026-04-23 13:25 29.29690 90.84130 12435 ft 170 kts 90°
2026-04-23 13:25 29.29709 90.85477 12168 ft 168 kts 88°
2026-04-23 13:25 29.29736 90.86814 11887 ft 167 kts 90°
2026-04-23 13:25 29.29755 90.88146 11657 ft 167 kts 88°
2026-04-23 13:26 29.29780 90.89476 11469 ft 166 kts 88°
2026-04-23 13:26 29.29799 90.90663 11453 ft 127 kts 89°
2026-04-23 13:26 29.29811 90.91475 11454 ft 77 kts 89°
2026-04-23 13:26 29.29819 90.91992 11434 ft 65 kts 89°
2026-04-23 13:27 29.29825 90.92489 11433 ft 48 kts 88°
2026-04-23 13:27 29.29831 90.92773 11432 ft 23 kts 87°
2026-04-23 13:27 29.29762 90.92888 11427 ft 16 kts 150°
2026-04-23 13:27 29.29680 90.92906 11431 ft 10 kts 231°
2026-04-23 13:28 29.29667 90.92824 11432 ft 11 kts 270°
2026-04-23 13:28 29.29666 90.92728 11431 ft 13 kts 269°
2026-04-23 13:28 29.29666 90.92671 11431 ft 13 kts 269°
2026-04-23 13:28 29.29663 90.92552 11427 ft 18 kts 268°
2026-04-23 13:29 29.29660 90.92395 11429 ft 21 kts 269°
2026-04-23 13:29 29.29658 90.92219 11433 ft 23 kts 269°
2026-04-23 13:29 29.29655 90.92031 11434 ft 24 kts 269°
2026-04-23 13:29 29.29651 90.91830 11434 ft 26 kts 268°
2026-04-23 13:30 29.29648 90.91618 11455 ft 28 kts 268°
2026-04-23 13:30 29.29643 90.91388 11455 ft 30 kts 269°
2026-04-23 13:30 29.29640 90.91142 11454 ft 32 kts 269°
2026-04-23 13:30 29.29636 90.90879 11454 ft 34 kts 269°
2026-04-23 13:31 29.29633 90.90598 11454 ft 36 kts 269°
2026-04-23 13:31 29.29628 90.90302 11455 ft 35 kts 269°
2026-04-23 13:31 29.29625 90.90070 11456 ft 20 kts 269°
2026-04-23 13:31 29.29572 90.90006 11446 ft 12 kts 176°
2026-04-23 13:32 29.29525 90.89944 11455 ft 12 kts 266°
2026-04-23 13:32 29.29473 90.89910 11450 ft 11 kts 180°
2026-04-23 13:32 29.29428 90.89909 11449 ft 0 kts 181°